Regional Weather Roundup
Issued by NWS Jackson, KY

Home | Current Version | Previous Version | Text Only | Print | Product List | Glossary On
Versions: 1 2 3 4 5 6 7 8 9 10 11 12 13 14 15 16 17 18 19 20 21 22 23 24 25 26 27 28 29 30 31 32 33 34 35 36 37 38 39 40 41 42 43 44 45 46 47 48 49 50
487
ASUS43 KJKL 271010
RWRJKL

EAST KENTUCKY HOURLY WEATHER ROUNDUP
NATIONAL WEATHER SERVICE JACKSON KY
600 AM EDT SUN MAY 27 2018

NOTE: "FAIR" INDICATES FEW OR NO CLOUDS BELOW 12,000 FEET WITH
NO SIGNIFICANT WEATHER AND/OR OBSTRUCTIONS TO VISIBILITY.

* THESE REPORTS ARE NOT UNDER NWS QUALITY CONTROL AND MAY NOT
  REPORT WEATHER SUCH AS PRECIPITATION AND FOG.

KYZ079-080-083-085-087-088-110-112-115-119-120-271100
...EASTERN KENTUCKY...

CITY           SKY/WX    TMP DP  RH WIND       PRES   REMARKS
JACKSON          N/A     68  65  90 CALM      29.95R
LONDON         MOCLDY    67  67 100 CALM      29.96R FOG
SOMERSET*      CLOUDY    68  68 100 MISG      29.96R
MONTICELLO*    CLOUDY    68  67  96 NE9       29.97
WILLIAMSBURG*  PTSUNNY   66  66 100 CALM      29.97R
MIDDLESBORO*   MOCLDY    67  67 100 SE5       29.98R
HARLAN APT*    CLOUDY    66  66 100 CALM      29.99S VSB 1/2
PIKE CO APT*   CLOUDY    68  68 100 S3        29.96R
BIG SANDY APT*   N/A     69  69 100 S3        29.94S
MOREHEAD APT*  PTSUNNY   70  66  88 CALM      29.94R
ASHLAND*         N/A     68  68 100 CALM      29.90R FOG
$$

KYZ035-036-041-042-044-050-067-078-099-271100
...CENTRAL KENTUCKY...

CITY           SKY/WX    TMP DP  RH WIND       PRES   REMARKS
MT STERLING*     N/A     68  68 100 CALM      29.93S
FLEMING/MASON*   N/A     67  67 100 S5        29.91S
DANVILLE*        N/A     68  66  94 SW5       29.95R
LEXINGTON        N/A     69  67  93 S6        29.92R
FRANKFORT        N/A     70  66  87 CALM      29.89S
LOUISVILLE     TSTM      70  67  90 SW9       29.88F FOG
LEBANON*         N/A     68  68 100 S6        29.92R
GLASGOW*         N/A     67  65  96 CALM      29.93R FOG
BOWLING GREEN    N/A     68  68 100 CALM      29.92R FOG
$$

KYZ091>093-OHZ055-061-077-WVZ005-015-034-035-042-271100
...SOUTHERN OHIO/WEST VIRGINIA...

CITY           SKY/WX    TMP DP  RH WIND       PRES   REMARKS
COVINGTON      MOCLDY    67  65  93 S3        29.88R
COLUMBUS       MOCLDY    68  66  93 S5        29.88R
DAYTON         MOCLDY    67  67 100 SW6       29.89R
WILMINGTON       N/A     65  65 100 SW5       29.88S
HUNTINGTON       N/A     70  66  87 S3        29.90S
CHARLESTON     MOCLDY    66  66 100 CALM      29.92R
PINEVILLE*       N/A     65  64  96 MISG      30.03R FOG
BECKLEY        MOCLDY    66  62  87 SW3       30.01R
BLUEFIELD        N/A     63  63 100 W5        30.04R
LOGAN CO APT*    N/A     68  66  94 CALM      29.96R
$$

VAZ002-007-008-TNZ017-027-036-066-071-271100
...SOUTHWEST VIRGINIA/EAST TENNESSEE...

CITY           SKY/WX    TMP DP  RH WIND       PRES   REMARKS
WISE*          CLOUDY    64  64 100 SW10G16   30.05R
JONESVILLE*    LGT RAIN  66  66 100 CALM      30.01R
ABINGDON*      CLOUDY    68  68 100 CALM      30.02R FOG
BRISTOL        LGT RAIN  68  68 100 W3        30.00R
MORRISTOWN*    PTSUNNY   66  66 100 S3        29.99R
SEVIERVILLE*   CLOUDY    68  68 100 CALM      29.98R
KNOXVILLE      LGT RAIN  68  68 100 S8        29.97R
LAFOLLETTE*    CLOUDY    68  66  94 CALM      30.01R FOG
OAK RIDGE      CLOUDY    70  70 100 CALM      29.99R
CROSSVILLE       N/A     66  65  96 CALM      30.00R
NASHVILLE        N/A     69  67  93 CALM      29.93R
$$

...KEY TO REMARKS...
VSB - VISIBILITY IN MILES
WCI - WIND CHILL INDEX
HX  - HEAT INDEX

$$




USA.gov is the U.S. government's official web portal to all federal, state and local government web resources and services.